ISS (ZARYA) 1 25544U 98067A 26145.42220529 .00009654 00000+0 18076-3 0 9992 2 25544 51.6330 52.7989 0007470 96.3597 263.8242 15.49365963568228 POISK 1 36086U 09060A 26145.42220529 .00009654 00000+0 18076-3 0 9990 2 36086 51.6330 52.7989 0007470 96.3597 263.8242 15.49365963568030 CSS (TIANHE) 1 48274U 21035A 26145.51067809 .00014512 00000+0 17905-3 0 9997 2 48274 41.4679 99.9009 0011050 279.1269 80.8319 15.59810900289621 ISS (NAUKA) 1 49044U 21066A 26145.42220529 .00009654 00000+0 18076-3 0 9998 2 49044 51.6330 52.7989 0007470 96.3597 263.8242 15.49365963568072 FREGAT DEB 1 49271U 11037PF 26145.51515770 .00019465 00000+0 31299-1 0 9993 2 49271 51.6158 70.0245 0920218 233.1587 118.1415 12.41696160222238 CSS (WENTIAN) 1 53239U 22085A 26145.51067809 .00014512 00000+0 17905-3 0 9990 2 53239 41.4679 99.9009 0011050 279.1269 80.8319 15.59810900288234 CSS (MENGTIAN) 1 54216U 22143A 26145.51067809 .00014512 00000+0 17905-3 0 9991 2 54216 41.4679 99.9009 0011050 279.1269 80.8319 15.59810900289499 HRC MONOBLOCK CAMERA 1 66052U 98067XR 26145.12944564 .00062224 00000+0 49666-3 0 9991 2 66052 51.6268 37.3060 0003500 100.1879 259.9513 15.70522259 34371 HTV-X1 1 66174U 25241A 26145.97977547 .00002414 00000+0 29639-4 0 9994 2 66174 51.6371 52.7025 0006727 94.3969 265.7795 15.65002909 32870 SZ-21 MODULE 1 66515U 25246C 26145.20404203 .00041241 00000+0 27831-3 0 9990 2 66515 41.4727 90.2489 0005481 218.1297 141.9160 15.74279029 30113 SHENZHOU-22 1 66645U 25272A 26145.51067809 .00014512 00000+0 17905-3 0 9996 2 66645 41.4679 99.9009 0011050 279.1269 80.8319 15.59810900289511 SOYUZ-MS 28 1 66664U 25275A 26145.42220529 .00009654 00000+0 18076-3 0 9991 2 66664 51.6330 52.7989 0007470 96.3597 263.8242 15.49365963568158 DUPLEX 1 66906U 98067XS 26145.01567839 .00033649 00000+0 40221-3 0 9990 2 66906 51.6288 46.3270 0005398 104.2596 255.8997 15.60666563 27034 ISS OBJECT XY 1 66912U 98067XY 26144.90752000 .00200214 00000+0 90501-3 0 9990 2 66912 51.6220 36.5143 0004799 152.3505 207.7754 15.82853823 27145 KNACKSAT-2 1 67683U 98067XZ 26145.01594194 .00040983 00000+0 54507-3 0 9998 2 67683 51.6300 50.8353 0011914 116.1156 244.1064 15.57682767 16662 CORAL 1 67684U 98067YA 26145.12814612 .00130769 00000+0 11132-2 0 9999 2 67684 51.6259 46.3144 0013095 121.3622 238.8658 15.68546210 16733 GXIBA-1 1 67685U 98067YB 26144.97483318 .00048472 00000+0 61449-3 0 9993 2 67685 51.6289 50.5589 0013487 113.7790 246.4618 15.58858192 16660 UITMSAT-2 1 67686U 98067YC 26145.02823793 .00066056 00000+0 76375-3 0 9998 2 67686 51.6280 49.4172 0009892 99.7190 260.4921 15.61190741 16687 LEOPARD 1 67687U 98067YD 26145.12106645 .00049348 00000+0 63782-3 0 9993 2 67687 51.6302 50.0450 0009759 97.5806 262.6296 15.58388834 16601 HMU-SAT2 1 67688U 98067YE 26144.99828979 .00056437 00000+0 68185-3 0 9998 2 67688 51.6294 49.9725 0009763 98.1989 262.0112 15.60112167 16594 CREW DRAGON 12 1 67796U 26031A 26145.42220529 .00009654 00000+0 18076-3 0 9999 2 67796 51.6330 52.7989 0007470 96.3597 263.8242 15.49365963568155 PROGRESS-MS 33 1 68319U 26058A 26145.42220529 .00009654 00000+0 18076-3 0 9990 2 68319 51.6330 52.7989 0007470 96.3597 263.8242 15.49365963568191 CYGNUS NG-24 1 68689U 26079A 26145.42220529 .00009654 00000+0 18076-3 0 9993 2 68689 51.6330 52.7989 0007470 96.3597 263.8242 15.49365963568270 PROGRESS-MS 34 1 68837U 26093A 26145.42220529 .00009654 00000+0 18076-3 0 9994 2 68837 51.6330 52.7989 0007470 96.3597 263.8242 15.49365963568310 TIANZHOU-10 1 69049U 26102A 26145.51067809 .00014512 00000+0 17905-3 0 9990 2 69049 41.4679 99.9009 0011050 279.1269 80.8319 15.59810900289668 DRAGON CRS-34 1 69103U 26107A 26145.42220529 .00009654 00000+0 18076-3 0 9997 2 69103 51.6330 52.7989 0007470 96.3597 263.8242 15.49365963568351 SHENZHOU-23 1 69180U 26113A 26145.51067809 .00014512 00000+0 17905-3 0 9998 2 69180 41.4679 99.9009 0011050 279.1269 80.8319 15.59810900289653